FW7622 Weather Reports


Display with metric or nautical units.
time (UTC)temp
F
wind
direction
speed
MPH
gust
MPH
rain 1hr
in
rain 24hr
in
rain mn
in
humidity
%
barometer
mb
20260906182522 80 181 2.0 2.0 0.00 0.00 0.00 67 1018.8
20260906182019 80 174 1.0 2.0 0.00 0.00 0.00 70 1018.8
20260906181514 80 155 2.0 2.0 0.00 0.00 0.00 70 1018.8
20260906181010 80 145 3.0 5.0 0.00 0.00 0.00 68 1019.1
20260906180504 79 164 3.0 3.0 0.00 0.00 0.00 71 1019.1
20260906180003 79 197 3.0 3.0 0.00 0.00 0.00 70 1019.1
20260906175457 80 165 1.0 1.0 0.00 0.00 0.00 71 1019.5
20260906174956 79 142 1.0 2.0 0.00 0.00 0.00 72 1019.1
20260906174455 79 183 2.0 3.0 0.00 0.00 0.00 71 1019.1
20260906173950 79 188 1.0 2.0 0.00 0.00 0.00 70 1019.1
20260906173445 78 178 1.0 1.0 0.00 0.00 0.00 73 1019.1
20260906172945 79 184 0.0 0.0 0.00 0.00 0.00 74 1019.5
20260906172441 79 192 1.0 1.0 0.00 0.00 0.00 70 1019.5
20260906171937 79 187 0.0 1.0 0.00 0.00 0.00 72 1019.1
20260906171431 78 129 5.0 7.0 0.00 0.00 0.00 70 1019.1
20260906170926 78 172 0.0 1.0 0.00 0.00 0.00 75 1019.1
20260906170417 78 166 0.0 1.0 0.00 0.00 0.00 77 1019.5
20260906165914 77 176 0.0 1.0 0.00 0.00 0.00 75 1019.5
20260906165413 77 186 0.0 1.0 0.00 0.00 0.00 75 1019.8
20260906164908 77 165 0.0 1.0 0.00 0.00 0.00 75 1019.8
20260906164406 78 178 0.0 1.0 0.00 0.00 0.00 77 1019.8
20260906163903 78 127 1.0 2.0 0.00 0.00 0.00 75 1020.2
20260906163359 77 182 1.0 1.0 0.00 0.00 0.00 76 1020.2
20260906162856 77 148 0.0 1.0 0.00 0.00 0.00 78 1019.8
20260906162355 78 174 1.0 2.0 0.00 0.00 0.00 76 1020.2
20260906161851 79 181 1.0 1.0 0.00 0.00 0.00 76 1019.8
20260906161350 78 179 0.0 0.0 0.00 0.00 0.00 78 1019.8
20260906160849 78 188 0.0 1.0 0.00 0.00 0.00 78 1020.2
20260906160342 78 47 2.0 2.0 0.00 0.00 0.00 79 1019.8
20260906155835 78 172 2.0 3.0 0.00 0.00 0.00 78 1020.2
20260906155329 77 175 1.0 1.0 0.00 0.00 0.00 80 1020.2
20260906154826 76 156 1.0 1.0 0.00 0.00 0.00 81 1019.8
20260906154319 77 35 1.0 1.0 0.00 0.00 0.00 80 1019.8
20260906153813 76 158 0.0 1.0 0.00 0.00 0.00 80 1019.8
20260906153312 76 175 0.0 1.0 0.00 0.00 0.00 82 1019.8
20260906152808 76 141 1.0 1.0 0.00 0.00 0.00 83 1020.2
20260906152306 76 215 3.0 6.0 0.00 0.00 0.00 83 1020.2
20260906151802 75 186 1.0 1.0 0.00 0.00 0.00 83 1020.2
20260906151257 75 187 1.0 2.0 0.00 0.00 0.00 86 1019.8
20260906150753 75 182 0.0 0.0 0.00 0.00 0.00 85 1019.8
20260906150248 75 181 1.0 2.0 0.00 0.00 0.00 86 1019.8
20260906145747 74 174 0.0 1.0 0.00 0.00 0.00 87 1019.8
20260906145246 74 187 0.0 1.0 0.00 0.00 0.00 88 1019.8
20260906144742 74 185 1.0 1.0 0.00 0.00 0.00 87 1019.5
20260906144236 74 167 1.0 1.0 0.00 0.00 0.00 89 1019.8
20260906143735 73 180 1.0 1.0 0.00 0.00 0.00 90 1019.5
20260906143233 73 152 2.0 3.0 0.00 0.00 0.00 90 1019.5
20260906142732 73 167 1.0 1.0 0.00 0.00 0.00 90 1019.5
20260906142228 73 153 0.0 1.0 0.00 0.00 0.00 92 1019.5
20260906141726 73 169 0.0 1.0 0.00 0.00 0.00 93 1019.5
20260906141221 72 178 0.0 0.0 0.00 0.00 0.00 94 1019.5
20260906140721 73 154 0.0 0.0 0.00 0.00 0.00 95 1019.5
20260906140216 71 177 0.0 0.0 0.00 0.00 0.00 97 1019.5
20260906135712 70 167 0.0 0.0 0.00 0.00 0.00 99 1019.5
20260906135209 69 186 0.0 0.0 0.00 0.00 0.00 99 1019.8
20260906134704 68 171 0.0 1.0 0.00 0.00 0.00 99 1019.8
20260906134159 69 171 0.0 0.0 0.00 0.00 0.00 99 1019.5
20260906133654 68 178 0.0 0.0 0.00 0.00 0.00 99 1019.8
20260906133150 68 179 0.0 0.0 0.00 0.00 0.00 99 1019.8
20260906132645 68 185 0.0 0.0 0.00 0.00 0.00 99 1019.5
20260906132141 67 176 0.0 0.0 0.00 0.00 0.00 99 1019.5
20260906131636 67 177 0.0 0.0 0.00 0.00 0.00 99 1019.8
20260906131131 66 149 0.0 1.0 0.00 0.00 0.00 99 1019.5
20260906130626 66 171 0.0 0.0 0.00 0.00 0.00 99 1019.5
20260906130121 64 173 0.0 0.0 0.00 0.00 0.00 99 1019.5
20260906125619 65 173 0.0 0.0 0.00 0.00 0.00 99 1019.5
20260906125118 63 174 0.0 0.0 0.00 0.00 0.00 99 1019.5
20260906124614 64 171 0.0 0.0 0.00 0.00 0.00 99 1019.1
20260906124109 63 170 0.0 0.0 0.00 0.00 0.00 99 1019.1
20260906123608 62 185 0.0 0.0 0.00 0.00 0.00 99 1019.5
20260906123103 63 178 0.0 0.0 0.00 0.00 0.00 99 1019.1
20260906122602 63 178 0.0 0.0 0.00 0.00 0.00 99 1019.1
20260906122058 63 174 0.0 0.0 0.00 0.00 0.00 99 1019.1
20260906121554 62 174 0.0 0.0 0.00 0.00 0.00 99 1019.1
20260906121051 62 174 0.0 0.0 0.00 0.00 0.00 99 1019.5
20260906120545 62 174 0.0 0.0 0.00 0.00 0.00 99 1019.5
20260906120043 63 175 0.0 0.0 0.00 0.00 0.00 99 1019.1
20260906115542 62 175 0.0 0.0 0.00 0.00 0.00 99 1019.1
20260906115038 62 181 0.0 0.0 0.00 0.00 0.00 99 1018.8
20260906114532 62 149 0.0 0.0 0.00 0.00 0.00 99 1019.1
20260906114028 62 180 0.0 0.0 0.00 0.00 0.00 99 1018.8
20260906113526 62 190 0.0 0.0 0.00 0.00 0.00 99 1018.5
20260906113022 62 175 0.0 0.0 0.00 0.00 0.00 99 1018.5
20260906112517 61 174 0.0 0.0 0.00 0.00 0.00 99 1018.5
20260906112013 61 173 0.0 0.0 0.00 0.00 0.00 99 1018.5
20260906111512 61 164 0.0 0.0 0.00 0.00 0.00 99 1018.5
20260906111008 62 174 0.0 0.0 0.00 0.00 0.00 99 1018.8
20260906110503 61 173 0.0 0.0 0.00 0.00 0.00 99 1018.8
20260906110001 61 173 0.0 0.0 0.00 0.00 0.00 99 1018.8
20260906105457 61 173 0.0 0.0 0.00 0.00 0.00 99 1018.5
20260906104953 62 174 0.0 0.0 0.00 0.00 0.00 99 1018.8
20260906104451 61 191 0.0 0.0 0.00 0.00 0.00 99 1019.1
20260906103951 61 179 0.0 0.0 0.00 0.00 0.00 99 1018.8
20260906103449 61 172 0.0 0.0 0.00 0.00 0.00 99 1018.8
20260906102945 61 171 0.0 0.0 0.00 0.00 0.00 99 1018.5
20260906102445 62 172 0.0 0.0 0.00 0.00 0.00 99 1018.5
20260906101945 62 171 0.0 0.0 0.00 0.00 0.00 99 1018.8
20260906101440 62 172 0.0 0.0 0.00 0.00 0.00 99 1018.5
20260906100936 62 171 0.0 0.0 0.00 0.00 0.00 99 1018.5
20260906100436 61 172 0.0 0.0 0.00 0.00 0.00 99 1018.8
20260906095930 62 170 0.0 0.0 0.00 0.00 0.00 99 1018.5
20260906095425 62 161 0.0 0.0 0.00 0.00 0.00 99 1018.0
20260906094920 62 168 0.0 0.0 0.00 0.00 0.00 99 1018.0
20260906094414 62 157 0.0 1.0 0.00 0.00 0.00 99 1017.7
20260906093910 61 170 0.0 0.0 0.00 0.00 0.00 99 1018.0
20260906093407 62 168 0.0 0.0 0.00 0.00 0.00 99 1018.0
20260906092901 62 168 0.0 0.0 0.00 0.00 0.00 99 1018.0
20260906092401 62 167 0.0 0.0 0.00 0.00 0.00 99 1017.7
20260906091856 62 169 0.0 0.0 0.00 0.00 0.00 99 1018.0
20260906091352 62 169 0.0 0.0 0.00 0.00 0.00 99 1017.7
20260906090849 62 170 0.0 0.0 0.00 0.00 0.00 99 1017.7
20260906090348 62 170 0.0 0.0 0.00 0.00 0.00 99 1017.7
20260906085842 62 170 0.0 0.0 0.00 0.00 0.00 99 1018.0
20260906085342 62 171 0.0 0.0 0.00 0.00 0.00 99 1017.7
20260906084836 61 172 0.0 0.0 0.00 0.00 0.00 99 1018.0
20260906084336 61 164 0.0 0.0 0.00 0.00 0.00 99 1018.0
20260906083831 61 170 0.0 0.0 0.00 0.00 0.00 99 1018.0
20260906083326 61 170 0.0 0.0 0.00 0.00 0.00 99 1018.0
20260906082820 61 174 0.0 0.0 0.00 0.00 0.00 99 1018.0
20260906082316 62 172 0.0 0.0 0.00 0.00 0.00 99 1018.0
20260906081811 61 171 0.0 0.0 0.00 0.00 0.00 99 1018.0
20260906081307 62 166 0.0 0.0 0.00 0.00 0.00 99 1017.7
20260906080803 62 159 0.0 0.0 0.00 0.00 0.00 99 1017.7
20260906080259 62 157 0.0 1.0 0.00 0.00 0.00 99 1018.0
20260906075758 62 159 0.0 0.0 0.00 0.00 0.00 99 1017.7
20260906075253 62 160 0.0 0.0 0.00 0.00 0.00 99 1018.0
20260906074748 62 145 0.0 0.0 0.00 0.00 0.00 99 1017.7
20260906074248 62 153 0.0 1.0 0.00 0.00 0.00 99 1018.0
20260906073747 62 151 0.0 0.0 0.00 0.00 0.00 99 1018.0
20260906073242 63 176 0.0 0.0 0.00 0.00 0.00 99 1018.0
20260906072738 63 166 0.0 0.0 0.00 0.00 0.00 99 1018.0
20260906072234 63 167 0.0 0.0 0.00 0.00 0.00 99 1018.0
20260906071729 63 166 0.0 0.0 0.00 0.00 0.00 99 1018.0
20260906071229 62 167 0.0 0.0 0.00 0.00 0.00 99 1018.0
20260906070726 63 160 0.0 1.0 0.00 0.00 0.00 99 1018.0
20260906070221 63 164 0.0 0.0 0.00 0.00 0.00 99 1018.5
20260906065721 63 173 0.0 0.0 0.00 0.00 0.00 99 1018.0
20260906065216 63 173 0.0 0.0 0.00 0.00 0.00 99 1018.0
20260906064712 63 173 0.0 0.0 0.00 0.00 0.00 99 1018.0
20260906064207 63 173 0.0 0.0 0.00 0.00 0.00 99 1018.5
20260906063702 63 173 0.0 0.0 0.00 0.00 0.00 99 1018.5
20260906063158 64 172 0.0 0.0 0.00 0.00 0.00 99 1018.0
20260906062653 64 155 0.0 0.0 0.00 0.00 0.00 99 1018.5
20260906062152 64 152 0.0 1.0 0.00 0.00 0.00 99 1018.5
20260906061649 64 169 0.0 0.0 0.00 0.00 0.00 99 1018.5
20260906061149 64 170 0.0 0.0 0.00 0.00 0.00 99 1018.5
20260906060645 64 171 0.0 0.0 0.00 0.00 0.00 99 1018.8
20260906060142 64 172 0.0 0.0 0.00 0.00 0.00 99 1018.5
20260906055637 63 153 0.0 0.0 0.00 0.00 0.00 99 1018.5
20260906055132 63 162 0.0 0.0 0.00 0.00 0.00 99 1018.0
20260906054627 63 166 0.0 0.0 0.00 0.00 0.00 99 1018.0
20260906054123 63 161 0.0 0.0 0.00 0.00 0.00 99 1018.0
20260906053619 64 163 0.0 0.0 0.00 0.00 0.00 99 1018.5
20260906053114 64 165 0.0 0.0 0.00 0.00 0.00 99 1018.5
20260906052610 64 170 0.0 0.0 0.00 0.00 0.00 99 1018.5
20260906052107 64 169 0.0 0.0 0.00 0.00 0.00 99 1018.5
20260906051602 64 169 0.0 0.0 0.00 0.00 0.00 99 1018.5
20260906051057 64 169 0.0 0.0 0.00 0.00 0.00 99 1018.5
20260906050552 64 138 0.0 0.0 0.00 0.00 0.00 99 1018.5
20260906050048 64 172 0.0 0.0 0.00 0.00 0.00 99 1018.0
20260906045545 63 172 0.0 0.0 0.00 0.00 0.00 99 1018.5
20260906045041 63 173 0.0 0.0 0.00 0.00 0.00 99 1018.5
20260906044537 64 154 0.0 0.0 0.00 0.00 0.00 99 1018.5
20260906044032 64 171 0.0 0.0 0.00 0.00 0.00 99 1018.0
20260906043528 63 171 0.0 0.0 0.00 0.00 0.00 99 1018.5
20260906043024 63 170 0.0 0.0 0.00 0.00 0.00 99 1018.0
20260906042522 64 154 0.0 0.0 0.00 0.00 0.00 99 1018.0
20260906042017 64 164 0.0 0.0 0.00 0.00 0.00 99 1017.7
20260906041514 64 164 0.0 0.0 0.00 0.00 0.00 99 1018.0
20260906041013 64 164 0.0 0.0 0.00 0.00 0.00 99 1018.0
20260906040508 64 166 0.0 0.0 0.00 0.00 0.00 99 1017.7
20260906040004 64 164 0.0 0.0 0.00 0.00 0.00 99 1018.0
20260906035459 64 182 0.0 0.0 0.00 0.00 0.00 99 1017.7
20260906034955 64 182 0.0 0.0 0.00 0.00 0.00 99 1017.7
20260906034454 64 183 0.0 0.0 0.00 0.00 0.00 99 1018.0
20260906033949 64 184 0.0 0.0 0.00 0.00 0.00 99 1018.0
20260906033444 64 181 0.0 0.0 0.00 0.00 0.00 99 1017.7
20260906032940 64 172 0.0 0.0 0.00 0.00 0.00 99 1017.7
20260906032437 64 172 0.0 0.0 0.00 0.00 0.00 99 1017.7
20260906031931 64 171 0.0 0.0 0.00 0.00 0.00 99 1017.7
20260906031426 64 171 0.0 0.0 0.00 0.00 0.00 99 1017.7
20260906030921 64 172 0.0 0.0 0.00 0.00 0.00 99 1017.7
20260906030416 64 171 0.0 0.0 0.00 0.00 0.00 99 1017.4
20260906025910 64 170 0.0 0.0 0.00 0.00 0.00 99 1017.7
20260906025405 65 160 0.0 0.0 0.00 0.00 0.00 99 1017.4
20260906024904 65 167 0.0 0.0 0.00 0.00 0.00 99 1017.4
20260906024403 65 171 0.0 0.0 0.00 0.00 0.00 99 1017.7
20260906023859 66 170 0.0 0.0 0.00 0.00 0.00 99 1017.4
20260906023355 66 170 0.0 0.0 0.00 0.00 0.00 99 1017.4
20260906022854 66 170 0.0 0.0 0.00 0.00 0.00 99 1017.4
20260906022349 66 164 0.0 0.0 0.00 0.00 0.00 99 1017.0
20260906021845 66 167 0.0 0.0 0.00 0.00 0.00 99 1017.0
20260906021344 67 165 0.0 0.0 0.00 0.00 0.00 99 1016.7
20260906020839 67 165 0.0 0.0 0.00 0.00 0.00 99 1016.7
20260906020339 67 153 0.0 0.0 0.00 0.00 0.00 99 1016.3
20260906015834 67 162 0.0 0.0 0.00 0.00 0.00 99 1016.3
20260906015333 67 169 0.0 0.0 0.00 0.00 0.00 99 1016.3
20260906014833 68 169 0.0 0.0 0.00 0.00 0.00 99 1016.3
20260906014327 68 167 0.0 0.0 0.00 0.00 0.00 99 1016.3
20260906013824 68 167 0.0 0.0 0.00 0.00 0.00 99 1016.0
20260906013319 69 172 0.0 0.0 0.00 0.00 0.00 99 1015.7
20260906012815 69 172 0.0 0.0 0.00 0.00 0.00 99 1015.7
20260906012315 69 174 0.0 0.0 0.00 0.00 0.00 99 1015.7
20260906011809 69 174 0.0 0.0 0.00 0.00 0.00 99 1015.7
20260906011304 69 172 0.0 0.0 0.00 0.00 0.00 99 1015.3
20260906010800 70 155 0.0 0.0 0.00 0.00 0.00 99 1015.7
20260906010256 70 148 0.0 1.0 0.00 0.00 0.00 99 1015.7
20260906005751 71 168 0.0 0.0 0.00 0.00 0.00 98 1015.7
20260906005250 71 169 0.0 0.0 0.00 0.00 0.00 98 1015.7
20260906004749 71 157 0.0 0.0 0.00 0.00 0.00 98 1015.7
20260906004244 71 181 0.0 0.0 0.00 0.00 0.00 97 1015.7
20260906003739 72 181 0.0 0.0 0.00 0.00 0.00 97 1015.7
20260906003234 72 181 0.0 0.0 0.00 0.00 0.00 96 1016.0
20260906002735 73 181 0.0 0.0 0.00 0.00 0.00 95 1016.0
20260906002234 73 181 0.0 0.0 0.00 0.00 0.00 94 1015.7
20260906001730 74 179 0.0 0.0 0.00 0.00 0.00 94 1015.7
20260906001225 74 182 0.0 0.0 0.00 0.00 0.00 93 1015.7
20260906000721 74 169 0.0 0.0 0.00 0.00 0.00 92 1015.7
20260906000215 75 177 0.0 0.0 0.00 0.00 0.00 92 1015.7
20260905235715 75 168 0.0 0.0 0.00 0.00 0.00 91 1015.7
20260905235210 75 182 0.0 0.0 0.00 0.00 0.00 90 1015.7
20260905234706 76 144 0.0 0.0 0.00 0.00 0.00 89 1015.7
20260905234201 77 141 0.0 0.0 0.00 0.00 0.00 88 1015.7
20260905233656 77 129 1.0 2.0 0.00 0.00 0.00 87 1016.0
20260905233155 77 165 0.0 0.0 0.00 0.00 0.00 87 1016.0
20260905232650 77 177 0.0 0.0 0.00 0.00 0.00 87 1015.7
20260905232146 77 180 0.0 0.0 0.00 0.00 0.00 87 1015.7
20260905231641 78 195 0.0 1.0 0.00 0.00 0.00 84 1015.7
20260905231137 78 164 0.0 0.0 0.00 0.00 0.00 85 1015.7
20260905230633 78 173 0.0 0.0 0.00 0.00 0.00 84 1015.7
20260905230131 79 172 0.0 0.0 0.00 0.00 0.00 84 1015.7
20260905225630 79 185 0.0 0.0 0.00 0.00 0.00 82 1015.7
20260905225126 79 171 0.0 1.0 0.00 0.00 0.00 81 1016.0
20260905224625 79 180 0.0 0.0 0.00 0.00 0.00 82 1015.7
20260905224125 80 178 0.0 0.0 0.00 0.00 0.00 81 1016.0
20260905223622 80 169 1.0 1.0 0.00 0.00 0.00 80 1015.7
20260905223118 81 175 1.0 1.0 0.00 0.00 0.00 80 1015.7
20260905222619 81 165 1.0 2.0 0.00 0.00 0.00 79 1016.0
20260905222114 81 164 0.0 1.0 0.00 0.00 0.00 79 1016.0
20260905221609 80 178 0.0 1.0 0.00 0.00 0.00 80 1016.0
20260905221106 81 191 0.0 1.0 0.00 0.00 0.00 78 1016.0
20260905220601 79 198 0.0 0.0 0.00 0.00 0.00 82 1016.0
20260905220057 78 165 0.0 0.0 0.00 0.00 0.00 84 1016.0
20260905215556 80 172 0.0 1.0 0.00 0.00 0.00 82 1016.3
20260905215052 80 186 0.0 1.0 0.00 0.00 0.00 81 1016.3
20260905214548 81 166 0.0 0.0 0.00 0.00 0.00 81 1016.3
20260905214043 82 195 0.0 1.0 0.00 0.00 0.00 76 1016.3
20260905213538 81 180 0.0 0.0 0.00 0.00 0.00 81 1016.3
20260905213033 81 204 0.0 1.0 0.00 0.00 0.00 77 1016.3
20260905212528 80 221 1.0 1.0 0.00 0.00 0.00 81 1016.7
20260905212028 79 139 1.0 1.0 0.00 0.00 0.00 86 1016.3
20260905211523 79 174 0.0 1.0 0.00 0.00 0.00 86 1016.7
20260905211019 79 166 0.0 0.0 0.00 0.00 0.00 83 1016.7
20260905210515 79 161 1.0 1.0 0.00 0.00 0.00 82 1016.3
20260905210014 80 168 1.0 1.0 0.00 0.00 0.00 82 1016.3
20260905205509 82 168 1.0 2.0 0.00 0.00 0.00 78 1016.7
20260905205008 81 178 0.0 0.0 0.00 0.00 0.00 79 1016.7
20260905204503 80 184 0.0 0.0 0.00 0.00 0.00 82 1016.7
20260905204003 79 198 0.0 1.0 0.00 0.00 0.00 82 1016.7
20260905203458 80 187 0.0 0.0 0.00 0.00 0.00 83 1016.7
20260905202953 80 176 0.0 1.0 0.00 0.00 0.00 81 1017.0
20260905202448 82 210 1.0 1.0 0.00 0.00 0.00 77 1017.0
20260905201944 83 203 1.0 1.0 0.00 0.00 0.00 74 1017.0
20260905201439 84 200 1.0 1.0 0.00 0.00 0.00 75 1017.4
20260905200938 83 189 1.0 1.0 0.00 0.00 0.00 79 1017.0
20260905200435 82 233 0.0 1.0 0.00 0.00 0.00 78 1017.4
20260905195933 83 179 0.0 0.0 0.00 0.00 0.00 80 1017.4
20260905195428 83 202 1.0 1.0 0.00 0.00 0.00 78 1017.0
20260905194924 80 185 0.0 0.0 0.00 0.00 0.00 80 1017.0
20260905194423 80 63 2.0 2.0 0.00 0.00 0.00 79 1017.0
20260905193923 79 188 0.0 0.0 0.00 0.00 0.00 83 1017.0
20260905193418 80 150 1.0 1.0 0.00 0.00 0.00 82 1017.0
20260905192913 80 201 0.0 0.0 0.00 0.00 0.00 80 1017.4
20260905192409 79 232 1.0 1.0 0.00 0.00 0.00 84 1017.4
20260905191909 78 188 0.0 0.0 0.00 0.00 0.00 85 1017.0
20260905191408 77 171 0.0 0.0 0.00 0.00 0.00 85 1017.0
20260905190902 78 164 1.0 1.0 0.00 0.00 0.00 84 1017.4
20260905190354 78 121 0.0 1.0 0.00 0.00 0.00 83 1017.0
20260905185853 78 157 1.0 1.0 0.00 0.00 0.00 84 1017.0
20260905185349 78 184 0.0 0.0 0.00 0.00 0.00 86 1017.4
20260905184848 78 166 0.0 0.0 0.00 0.00 0.00 86 1017.0
20260905184347 78 170 0.0 0.0 0.00 0.00 0.00 83 1017.4
20260905183845 78 165 0.0 0.0 0.00 0.00 0.00 83 1017.0
20260905183341 78 171 0.0 0.0 0.00 0.00 0.00 84 1017.0